WESTFORD NEEDLES, 2359

Orbit data source: Space-Track

WESTFORD NEEDLES, 2359 is space debris in LEO originally from a launch on Thu, 09 May 1963 UTC launched from the Air Force Western Test Range (AFWTR). Debris objects in space refer to the collection of defunct objects orbiting the Earth. Examples of debris include non-operational satellites, rocket bodies, and fragments generated from explosions, collisions, or faulty payload assembly.

Loading next visibility...
Identifier
2359, 1963-014J
Orbit
LEO
Country
Flag of USUS
Related business
Manufacturer
Unknown
Mission
Spacecraft
Bus & Motor
Unknown
Mass
Unknown
Launch date (UTC)
1963-05-09 (63 years ago)
Launch vehicle
Unknown
Launch site
Air Force Western Test Range (AFWTR)
Object type
Payload
Rocket body
Debris
Shape & HBR
Unknown shape, 0.2 m
Radar Cross Section
Medium (>0.1 m² and <1 m²)

Expand to show TLE details & history
Last TLE update: 2 months ago

TLE from 2 months ago
0 WESTFORD NEEDLES
1 02359U 63014J   25328.14768428  .00003856  00000-0  77869+0 0  9991
2 02359  86.8988  30.3819 1244125 299.3920  48.8349  8.71589683896874
Epoch: 2025-11-24T03:32Z
TLE epoch observation values (Epoch: 2025-11-24T03:32:39.921Z)
Latitude
0.00001°
Longitude
-86.13626°
Altitude
2,879.919 km
Speed
6.794 km/s
True Right ascension
02h 01m 31s
True Declination
0° 00' 00"
Sunlit
Object was in full shadow at epoch
Visualization orbit readout
Latitude
Unknown
Longitude
Unknown
Altitude
Unknown
Speed
Unknown
Apparent Right ascension
Unknown
Apparent Declination
Unknown
Sunlit
N/A
Visualization observer readout
Local Sidereal Time
18:55:09
Azimuth
Unknown
Elevation
Unknown
Doppler factor
Unknown
Orbital elements
Apogee altitude
4,834.011 km
Perigee altitude
2,352.838 km
Semi-major axis
9,971.562 km
Eccentricity
0.12441
Inclination
86.8988°
RAAN
30.3819°
Arg. of periapsis
299.392°
True anomaly
60.69876°
Mean anomaly
48.8349°
Eccentric anomaly
54.64891°
Mean motion
2.17971 °/min
Orbital period
165.16 mins
BSTAR
0.77869

Documentation

Showing up to 5 results
|